Location: Columbus AFB Auxilary Field
(32.9346°N, 88.5717°W)
Time: 10:38:25
(UTC-05:00)

N. Korean satellite - Visible Passes

Search period start: 15 October 2018 00:00
Search period end: 25 October 2018 00:00
Orbit: 459 x 510 km, 97.2° (Epoch: 15 October)

Date Brightness Start Highest point End Pass type
(mag) Time Alt. Az. Time Alt. Az. Time Alt. Az.
15 Oct 8.7 19:04:34 10° SSW 19:07:53 33° W 19:11:17 10° NNW visible
16 Oct 6.9 18:39:48 10° S 18:43:28 77° W 18:47:12 10° NNW visible
17 Oct 10.5 06:13:01 10° ENE 06:14:24 12° E 06:15:45 10° ESE visible
18 Oct 9.8 19:25:37 10° SW 19:28:11 18° W 19:30:46 10° NW visible
19 Oct 8.4 19:00:14 10° SSW 19:03:40 37° W 19:07:10 10° NNW visible
20 Oct 9.7 06:31:50 10° NE 06:34:41 22° E 06:37:30 10° SSE visible
20 Oct 6.7 18:35:33 10° SSE 18:39:15 88° WSW 18:43:00 10° NNW visible
21 Oct 10.8 06:09:52 10° E 06:10:07 10° E 06:10:22 10° E visible
22 Oct 9.6 19:21:07 10° SW 19:23:54 20° W 19:26:43 10° NW visible
23 Oct 8.1 18:55:52 10° S 18:59:24 43° W 19:02:59 10° NNW visible
24 Oct 9.9 06:27:45 10° NE 06:30:23 19° E 06:32:57 10° SE visible
24 Oct 6.6 18:31:16 10° SSE 18:34:59 81° ENE 18:38:44 10° N visible
